Location: Eexterzandvoort
(53.0303°N, 6.7884°E)
Time: 06:54:15
(UTC+00:00)

Meteor 1-18 Rocket - Pass Details

Date: 19 May 2025
Orbit: 836 x 907 km, 81.2° (Epoch: 14 June)

Event Time Altitude Azimuth Distance (km) Brightness Sun altitude
Exits shadow 23:14:35 27° 179° (S) 1,624 5.1 -16.9°
Maximum altitude 23:17:50 75° 100° (E) 928 4.3 -16.9°
Drops below altitude 10° 23:23:44 10° 16° (NNE) 2,591 7.9 -17.0°
Sets 23:26:13 0° 15° (NNE) 3,542 8.9 -17.0°
